Theta_e
324 326 326 325 324 324 324 324 324 324 322 324 325 325 325 324 324 325 325 326 327 328 328 328 328 328 328 329 328 327 321 318 317 321 322 321 321 319 320 317 317 318 319 319
325 325 324 323 323 323 324 324 324 323 322 323 325 325 324 323 323 323 324 324 325 325 326 328 328 328 327 327 327 326 324 318 320 322 319 320 323 323 323 323 319 317 317 317
325 323 322 323 323 324 324 324 324 324 323 323 324 325 324 323 322 322 322 322 322 322 323 324 327 327 327 327 327 327 324 321 322 319 325 325 325 324 324 325 324 324 323 318
324 321 323 324 323 322 323 322 321 322 323 324 323 323 326 324 324 322 322 321 321 320 320 320 321 322 322 322 323 325 324 323 323 322 321 321 323 324 324 324 323 323 323 321
323 323 323 324 322 321 322 320 320 320 321 322 321 322 326 324 323 323 322 321 321 320 320 319 318 318 318 318 318 318 319 318 317 318 321 321 321 321 320 320 321 321 322 323
323 321 321 321 320 319 319 319 319 320 320 322 322 320 319 323 323 323 321 320 320 319 318 318 318 317 317 316 315 316 316 317 317 317 316 315 314 315 315 315 316 316 318 319
324 324 321 319 320 319 318 319 320 320 321 319 321 319 320 323 322 321 321 320 319 318 317 317 316 315 315 314 314 314 313 314 315 315 316 316 316 314 312 314 314 315 316 317
326 326 322 318 318 318 318 318 320 318 319 317 319 320 324 322 319 319 319 319 318 317 316 316 315 315 314 314 314 313 313 312 312 314 314 315 315 314 313 313 313 314 315 315
326 326 319 318 318 318 319 320 319 322 321 321 319 320 321 320 320 319 318 317 317 316 315 315 314 314 313 313 312 312 311 310 311 311 312 313 314 314 313 313 312 312 312 313
325 326 319 318 317 318 320 318 322 320 323 317 316 316 317 321 320 319 318 317 316 315 314 313 312 312 311 311 310 310 311 311 311 311 311 312 312 312 312 311 310 310 311 312
322 323 321 317 318 318 320 319 319 319 319 319 318 317 319 318 318 318 317 316 315 314 313 312 311 310 310 310 310 310 310 310 310 310 311 311 311 310 309 308 309 309 310 310
321 322 320 319 317 317 318 319 319 321 321 320 320 321 319 317 317 317 316 315 314 313 312 311 310 310 309 310 310 310 309 309 309 309 309 308 307 307 306 306 306 307 307 308
322 322 324 319 321 319 320 320 319 320 321 323 325 321 318 318 318 316 315 314 313 312 311 310 309 308 309 309 309 309 308 308 308 307 306 306 306 306 306 306 306 306 308 307
318 322 322 319 318 318 319 319 319 320 325 324 321 320 318 317 317 315 314 313 312 311 310 308 308 308 308 308 308 308 308 307 306 306 306 306 305 305 305 305 305 304 304 305
321 321 319 318 317 318 318 318 318 320 321 323 320 318 317 316 316 314 312 311 310 309 308 307 308 309 308 308 307 307 306 305 305 305 304 304 305 305 304 304 305 305 304 304
320 320 319 320 319 319 319 318 319 320 319 317 317 316 315 314 313 312 311 310 309 308 307 308 308 308 307 307 306 305 305 304 303 303 303 303 304 304 304 305 305 304 304 304
320 318 321 322 321 320 322 320 318 317 317 317 318 316 314 314 312 311 310 309 309 307 307 307 308 307 306 305 304 303 302 302 302 303 303 304 304 304 304 304 304 303 303 303
319 320 321 322 321 321 322 318 317 317 315 316 315 315 313 312 311 310 310 309 308 307 309 308 307 306 304 304 303 302 302 302 303 303 303 304 304 304 305 304 304 304 303 303
317 320 322 323 321 319 318 319 318 318 316 315 314 313 312 310 310 311 310 308 308 309 308 307 306 304 304 303 302 302 302 303 303 305 304 305 304 305 305 305 305 305 303 303
319 320 322 320 320 318 320 317 314 315 319 314 313 313 311 311 316 312 309 308 308 309 308 305 304 303 302 302 301 302 302 303 304 305 305 305 306 305 306 306 305 305 304 304
321 320 320 319 319 317 317 315 314 318 317 314 313 312 311 313 311 309 308 308 308 308 306 305 303 302 301 301 301 302 303 304 305 306 306 306 306 307 306 306 306 306 306 306
320 321 320 318 317 318 314 316 321 315 314 314 314 312 312 311 310 309 308 308 308 307 305 304 302 302 302 301 302 303 304 305 306 307 307 307 307 306 306 307 308 309 309 309
319 317 320 319 318 317 314 314 314 315 315 314 313 312 311 310 309 308 308 309 308 306 304 303 302 302 303 302 303 303 305 305 306 307 307 307 307 308 308 308 310 311 311 310
316 315 315 317 316 315 315 314 314 314 314 313 312 312 310 310 309 308 309 308 306 304 303 303 303 302 302 302 304 304 305 306 307 307 307 308 308 309 309 309 310 310 311 311
315 315 315 317 316 314 314 313 313 313 313 313 311 310 309 309 308 309 308 306 304 303 303 303 303 302 302 302 305 305 306 306 307 308 308 308 309 309 310 310 310 311 311 313
314 316 317 320 315 315 313 314 314 313 312 312 310 309 309 308 309 309 307 305 303 302 303 304 303 302 303 303 305 307 307 307 308 308 308 309 309 309 309 310 310 311 312 314
Wind_Speed
2 2 5 5 5 5 1 4 4 2 3 2 2 4 5 5 5 8 9 12 14 16 16 16 15 12 8 3 3 8 8 9 8 5 4 4 3 4 3 4 7 9 8 10
6 8 4 4 2 1 4 5 2 3 1 7 7 5 4 5 7 7 8 11 13 14 16 16 15 14 11 8 6 4 1 2 2 4 5 6 6 6 6 8 12 12 13 14
10 8 3 4 3 2 1 6 3 8 2 6 6 11 10 7 6 6 7 9 11 13 14 15 14 13 10 9 6 4 1 3 4 7 6 8 9 12 12 12 12 13 14 19
8 4 2 3 5 9 9 3 7 9 9 9 3 9 12 10 8 5 4 5 7 10 10 10 11 12 12 11 11 9 10 12 13 14 14 15 14 14 17 19 19 20 20 22
6 3 3 4 5 7 6 7 7 9 11 11 13 7 10 10 9 7 3 2 4 7 9 10 10 10 10 11 11 12 13 13 15 16 18 19 21 25 24 21 22 23 26 24
8 3 4 5 1 3 5 8 7 6 6 9 4 5 4 6 9 7 4 1 4 7 9 9 10 11 13 13 15 17 18 17 16 16 17 21 26 28 33 33 37 28 25 23
5 3 4 6 9 5 8 8 4 4 5 5 3 7 3 5 3 2 2 2 3 7 9 11 13 16 18 20 21 22 22 22 23 23 22 21 22 26 27 22 23 24 24 23
6 7 3 4 6 7 5 6 4 5 6 11 7 5 5 4 3 2 2 4 8 11 14 17 19 21 23 23 24 24 23 23 22 23 24 25 25 26 27 27 26 27 28 27
3 3 5 6 5 5 3 1 4 5 8 8 1 4 10 7 5 4 4 8 12 15 18 20 22 23 24 25 25 26 26 28 27 28 28 28 28 28 29 30 30 31 32 30
3 4 1 3 3 6 6 3 4 2 4 9 6 8 6 6 8 4 9 11 15 18 22 24 24 26 27 26 26 27 28 29 30 30 29 30 30 30 32 34 36 34 32 30
1 2 7 4 3 3 6 4 1 4 4 5 8 5 6 8 8 8 16 20 20 22 25 25 28 28 29 29 29 30 30 31 32 31 31 30 31 33 33 34 32 31 31 31
3 2 4 3 3 1 3 3 3 3 3 7 10 14 6 4 11 12 17 19 22 24 26 28 30 31 32 32 32 33 33 34 33 32 30 32 35 33 33 29 30 30 31 30
4 2 3 5 6 7 7 5 7 5 5 10 9 8 6 7 11 8 18 21 27 28 30 31 32 33 34 34 36 37 36 34 34 30 27 26 26 27 30 29 26 24 25 27
2 4 8 6 7 4 5 8 8 9 7 12 14 20 17 17 17 21 24 25 29 32 33 33 34 35 37 40 39 36 34 31 28 26 26 28 28 28 28 29 28 28 26 27
3 6 6 9 9 9 11 13 12 13 14 14 18 18 18 15 18 24 24 29 32 33 34 35 37 40 43 40 35 31 28 25 27 28 30 33 31 30 29 28 28 27 27 26
4 6 5 10 10 11 14 14 13 12 13 15 15 17 15 22 22 26 26 29 33 33 37 39 43 44 41 36 33 28 28 31 30 32 35 30 31 31 28 28 29 28 28 27
4 4 5 6 1 9 12 9 8 7 9 11 13 16 20 18 23 26 30 32 29 37 40 43 44 42 36 32 30 39 35 33 34 33 32 29 30 28 27 27 27 27 27 25
5 6 4 7 6 7 5 2 2 6 9 11 14 15 15 22 24 28 31 29 35 38 40 43 42 37 32 32 38 37 35 34 31 30 30 28 27 25 28 26 25 26 24 26
9 7 4 4 6 13 11 4 3 1 12 17 9 12 20 23 26 26 27 33 34 35 39 40 37 33 36 37 36 35 33 31 29 30 27 26 25 25 25 26 24 23 23 22
7 8 6 4 5 4 5 6 3 2 6 3 10 16 19 23 14 16 35 35 36 37 39 37 33 34 37 37 35 32 32 31 28 29 26 25 24 23 23 22 21 22 20 19
6 6 11 8 6 7 6 8 4 4 4 13 16 16 19 17 24 33 34 36 37 38 38 34 32 36 37 35 31 29 29 27 26 24 23 21 20 19 18 20 21 20 20 19
7 4 5 4 5 7 10 9 4 6 15 17 16 17 21 24 28 31 34 36 36 39 37 28 36 37 36 30 28 30 29 26 23 22 20 17 17 15 17 18 21 18 18 18
5 6 2 6 3 5 14 9 10 13 16 16 15 18 21 24 29 31 33 35 37 36 29 32 34 35 33 28 29 30 27 25 23 19 17 16 12 13 16 13 13 13 13 13
5 6 4 2 5 12 11 11 13 13 13 13 16 18 21 26 28 31 33 35 35 29 27 32 33 34 33 29 28 26 23 22 16 15 14 13 13 13 11 11 14 10 9 8
3 10 8 10 14 12 10 7 9 10 10 13 16 18 22 25 26 29 32 33 29 24 30 30 31 30 31 28 25 24 20 19 15 12 12 14 10 13 10 12 11 10 8 5
12 9 7 4 1 5 5 5 6 9 12 14 16 19 22 22 24 27 29 30 24 26 28 29 30 28 28 26 22 22 19 17 12 9 16 14 14 13 11 11 10 10 8 6
Wind_Direction
99 198 55 35 18 30 279 262 266 92 90 215 88 125 93 78 77 70 56 51 46 44 39 37 38 39 42 49 252 225 228 226 219 209 211 243 234 245 257 268 288 307 305 309
155 65 78 75 100 213 262 269 229 201 109 279 179 157 133 113 86 71 60 54 49 46 42 39 42 42 44 47 48 49 42 265 276 289 265 249 254 258 255 269 279 289 294 299
67 81 126 102 89 291 321 304 289 298 257 252 233 201 181 152 130 100 75 59 48 44 40 37 34 34 32 25 21 17 323 251 275 251 291 283 275 277 286 284 288 288 283 295
82 93 60 70 63 336 284 19 293 280 274 289 236 290 192 166 162 149 107 54 34 22 24 25 22 19 18 21 13 5 332 316 312 301 290 282 284 283 278 282 286 282 285 283
97 127 0 30 18 336 12 319 296 288 272 289 231 256 106 174 193 170 168 48 24 9 2 358 359 356 356 358 350 346 342 331 321 312 297 288 281 277 279 285 288 291 290 284
123 112 35 20 3 332 309 261 251 262 258 241 107 263 235 183 237 168 196 278 344 344 339 337 336 334 330 331 329 324 320 313 308 305 300 295 291 287 286 285 284 287 286 280
175 118 110 1 303 192 326 310 307 234 207 280 102 265 308 100 147 275 251 281 316 325 325 324 320 318 314 315 315 315 308 303 298 294 287 282 282 281 285 287 284 282 281 281
276 182 5 9 15 334 354 333 311 302 319 315 236 262 76 93 150 186 264 306 303 318 321 316 312 310 309 308 310 311 309 307 303 295 288 280 278 283 281 284 281 278 279 280
278 150 113 55 30 324 59 347 9 300 265 265 340 209 191 170 187 221 300 314 314 315 313 312 312 310 307 305 304 304 304 302 300 295 290 285 279 280 283 285 285 283 279 275
78 271 178 98 236 71 336 96 227 187 297 311 324 312 310 190 246 240 280 310 313 310 311 311 311 310 307 303 302 302 300 300 299 297 291 287 281 279 283 285 285 284 278 276
73 255 135 205 206 321 169 192 312 302 288 293 309 3 51 316 329 309 314 317 312 314 312 312 312 310 307 304 302 302 301 300 299 296 292 287 284 283 285 286 285 280 278 277
62 295 255 344 104 227 281 279 293 280 262 261 282 292 49 354 315 304 298 307 311 308 310 311 313 312 310 306 304 303 302 299 297 295 289 288 287 286 285 284 285 282 281 277
158 212 284 190 171 191 241 224 255 283 285 279 283 281 186 254 256 279 297 316 314 309 313 316 315 314 312 310 307 303 301 299 297 294 291 289 289 288 286 285 288 287 284 281
182 248 249 270 340 320 244 248 255 263 277 275 282 305 308 320 321 325 322 312 309 314 317 318 318 316 314 312 307 303 301 299 294 295 292 289 287 287 286 283 284 287 287 276
244 262 253 266 278 266 274 278 277 265 268 278 293 302 311 335 326 314 314 318 317 317 319 319 319 318 317 313 309 306 304 299 297 294 292 293 296 296 293 285 288 290 287 275
201 267 275 271 259 269 270 270 269 269 277 282 291 293 329 329 312 321 321 320 315 318 319 317 318 318 317 313 309 307 303 302 301 294 300 297 298 300 295 292 289 283 285 274
217 259 258 281 257 284 270 258 249 271 281 288 290 303 318 320 319 318 322 315 324 324 321 319 318 319 317 312 308 311 314 312 307 305 304 301 301 299 297 292 286 282 285 279
221 226 264 280 287 251 76 71 327 279 291 285 293 306 312 313 314 320 314 331 327 321 320 319 319 317 313 310 317 318 317 315 312 312 310 307 305 298 298 296 292 292 288 284
228 235 261 264 280 285 224 212 213 203 285 295 284 307 312 314 317 313 332 328 322 324 320 319 316 314 311 321 322 320 318 318 313 316 314 308 307 303 298 297 298 296 292 288
196 237 243 233 264 277 84 148 144 297 287 130 285 306 315 319 316 319 330 324 324 324 323 321 316 314 325 326 327 323 320 319 317 321 318 312 304 297 296 297 297 303 295 291
182 211 232 242 247 267 124 159 164 247 304 321 314 310 313 314 317 318 322 323 323 324 324 322 318 328 328 330 329 327 328 325 324 318 319 312 304 302 298 299 302 304 302 298
210 204 214 234 248 251 151 163 214 282 305 305 305 308 311 314 317 320 323 323 326 326 325 324 333 336 338 340 339 335 333 334 333 329 323 319 318 308 309 308 314 308 297 288
235 222 256 213 272 116 187 248 276 287 289 299 305 311 312 315 319 323 323 325 326 325 323 329 339 338 341 345 344 339 337 333 322 327 328 326 326 322 314 316 321 315 316 309
225 209 233 254 229 233 251 260 276 285 287 294 308 312 316 318 321 321 324 325 326 324 323 338 341 341 342 347 343 343 342 346 340 341 344 348 333 341 346 345 338 325 332 319
348 164 234 246 266 266 265 262 284 295 295 301 311 315 320 321 319 322 324 326 323 324 331 340 344 343 343 343 346 352 353 352 354 358 349 351 350 344 350 351 5 8 15 10
201 232 210 237 230 230 281 285 290 292 306 312 315 319 320 320 319 323 324 324 323 323 336 340 342 343 344 345 347 354 358 2 4 6 353 3 8 4 1 4 22 27 35 49